Wind_Speed
15 19 15 15 13 8 5 9 11 8 6 8 5 2 1 0 4 4 5 7 4 2 7 8 9 9 9 11 13 14 18 18 16 16 21 27 31 34 37 42 49 53 55 55 55 54 52 50 49 49 49 48 48 49 50 50 50 51 51 50 49 47 46
13 16 18 16 15 11 7 9 10 7 6 7 7 4 3 5 7 4 5 10 8 4 5 4 9 11 11 11 12 13 16 16 16 18 22 29 32 34 38 44 49 52 53 54 55 56 55 53 52 50 48 47 47 48 48 49 50 50 51 50 50 49 47
9 10 14 13 12 11 6 7 11 8 5 7 6 5 6 7 8 5 5 8 8 9 7 2 6 11 12 11 11 13 14 14 17 19 23 29 31 30 34 40 45 49 52 54 55 57 57 56 54 52 49 48 48 48 48 49 49 48 49 50 50 50 49
10 10 11 10 10 8 2 5 10 6 4 6 7 5 4 5 7 5 3 4 6 8 9 8 9 9 10 11 10 11 13 16 19 21 23 27 30 33 36 39 43 49 52 53 55 56 57 57 57 55 52 51 50 50 49 49 48 48 49 49 49 49 49
9 9 9 11 13 10 6 7 10 7 4 3 4 5 4 4 6 5 5 6 3 2 6 12 15 12 10 11 10 10 13 17 20 22 27 30 32 36 39 40 43 47 51 52 53 55 56 56 56 55 53 53 53 52 52 51 50 49 49 49 49 48 48
7 7 10 16 18 16 14 10 10 11 8 5 6 6 6 5 6 4 4 7 4 3 3 8 12 12 11 11 11 10 13 18 20 25 32 34 32 35 38 40 42 43 47 49 48 50 53 54 54 54 53 54 54 54 54 53 52 51 50 49 49 47 46
3 5 9 14 13 12 15 12 11 13 11 9 8 7 7 7 5 2 2 8 5 3 5 7 8 9 10 10 10 10 13 17 21 27 33 32 30 31 32 33 34 33 38 43 44 46 50 52 53 53 53 54 55 55 55 55 54 53 52 51 50 48 46
1 2 5 7 4 5 10 11 11 12 12 13 12 6 4 7 7 5 5 8 4 2 3 5 4 5 7 8 8 10 12 15 18 24 29 30 29 28 25 25 28 29 33 38 41 45 48 50 51 52 53 55 55 55 55 56 55 54 53 53 52 50 48
5 6 7 7 5 4 7 8 10 13 14 17 15 5 2 6 11 12 9 9 4 3 0 2 3 4 6 8 9 9 11 14 18 21 24 26 26 25 24 25 27 28 31 35 40 44 46 48 50 51 53 55 55 55 56 55 54 54 54 54 54 52 50
10 8 7 6 3 3 3 4 8 13 17 20 15 5 4 8 10 12 13 8 2 3 1 2 4 4 6 9 10 9 12 17 20 21 22 21 20 20 23 26 26 27 30 33 38 42 45 47 49 51 52 53 54 55 55 55 54 54 54 54 54 53 52
2 1 1 2 3 1 2 2 3 7 13 18 15 9 7 6 5 9 13 9 5 4 4 3 4 5 6 9 8 7 12 19 21 20 20 18 17 18 19 22 24 26 29 32 36 40 43 46 49 50 51 52 53 54 54 54 53 53 54 54 54 54 52
4 5 6 5 4 4 5 6 6 5 7 13 17 14 8 7 6 11 10 7 10 10 6 5 6 6 7 7 6 8 14 18 17 15 14 14 14 15 16 18 22 25 29 32 34 37 40 44 46 48 50 51 52 52 53 52 53 53 53 53 54 53 52
5 7 8 5 3 5 6 7 9 9 8 9 13 14 10 10 10 12 7 8 11 12 9 9 7 5 6 8 8 13 18 16 12 9 9 11 11 12 14 16 20 23 26 29 32 34 37 40 44 46 48 49 50 51 51 52 52 53 53 53 53 52 52
6 7 7 4 2 4 7 9 10 12 12 11 10 11 13 13 14 14 10 9 11 11 10 12 12 11 12 13 13 16 18 15 10 8 9 10 12 16 17 17 19 21 22 24 28 32 34 38 41 44 46 48 49 49 50 51 52 52 53 53 51 51 52
5 5 5 4 5 7 9 10 11 11 12 12 12 11 12 12 12 14 14 11 8 6 5 8 9 8 10 12 12 15 18 16 12 12 15 18 21 24 23 19 17 18 19 21 24 28 33 36 39 42 44 46 47 48 49 50 50 51 52 52 51 51 52
4 4 6 9 12 11 11 12 12 13 13 12 11 9 9 10 9 11 14 11 6 3 4 8 8 5 7 8 9 14 20 21 17 17 21 24 27 29 27 22 18 18 18 18 20 23 28 33 37 40 42 44 46 47 48 48 48 50 51 51 51 51 51
4 4 7 10 12 9 9 9 8 10 12 12 12 12 11 11 9 8 9 7 4 4 7 10 10 9 9 10 13 19 24 24 23 23 25 27 30 30 29 26 23 21 19 18 18 20 24 29 33 36 39 43 45 45 46 46 48 50 51 50 50 50 51
5 6 8 9 8 7 4 1 1 4 7 8 10 12 12 11 11 9 8 6 6 8 9 9 11 13 15 18 22 26 27 24 24 26 28 29 29 28 26 26 25 24 21 20 19 18 20 24 29 33 37 39 40 42 44 46 47 49 49 49 49 50 51
4 5 6 6 7 5 4 2 1 3 4 4 8 10 9 8 9 11 12 11 10 8 8 11 16 20 21 21 20 20 22 22 22 24 26 26 25 23 24 25 26 26 24 23 23 20 17 20 26 31 34 36 38 41 44 45 45 46 47 49 49 50 51
3 2 5 6 3 9 12 3 4 2 2 2 7 6 3 3 5 5 8 10 10 9 8 13 19 19 15 13 13 15 17 17 18 21 22 22 22 22 24 25 26 27 26 25 25 21 16 16 23 28 30 33 37 40 42 43 44 45 46 47 47 49 51
5 5 8 7 6 13 13 2 5 2 1 2 4 3 1 4 6 6 6 7 9 10 7 9 13 11 7 7 10 15 17 16 18 20 21 21 22 22 23 24 26 26 25 24 23 20 15 15 20 23 27 31 36 39 41 41 42 43 45 46 46 48 49
6 6 8 7 8 9 5 3 2 1 2 2 2 2 2 2 5 8 7 7 9 10 9 9 6 4 6 6 8 15 20 19 18 19 19 19 20 20 21 23 25 25 23 21 19 16 14 14 15 19 23 28 33 36 39 40 40 42 44 44 44 46 48
6 8 8 8 8 5 3 4 1 2 1 4 4 4 3 2 7 10 8 8 10 9 10 10 4 4 8 6 6 14 20 18 16 17 16 15 16 17 18 20 21 20 18 16 14 12 11 10 11 15 19 23 28 32 34 37 39 41 41 41 41 44 46
7 8 8 7 6 3 3 2 3 3 2 6 5 5 2 3 8 11 9 10 12 12 13 11 6 6 7 4 3 9 16 16 15 13 11 10 10 11 12 13 13 13 11 10 9 8 8 8 9 12 15 19 24 28 31 34 37 37 36 37 40 42 42
9 10 9 7 6 3 3 2 1 1 4 5 5 4 1 3 7 10 10 11 12 13 14 11 8 6 4 4 3 4 10 12 12 12 10 9 8 7 6 6 6 8 8 8 8 8 8 9 10 11 13 16 20 23 27 31 33 33 33 35 37 38 38
8 8 8 7 6 2 5 4 1 3 4 4 3 1 2 4 7 9 10 9 10 13 14 13 11 8 5 3 2 4 6 6 8 10 10 10 10 10 9 7 6 7 8 9 10 10 10 10 11 12 11 12 14 18 22 25 26 27 28 30 32 34 35
7 7 8 8 5 0 6 7 4 4 4 3 3 3 4 4 6 9 10 9 9 11 13 12 10 7 4 4 5 6 6 5 5 5 7 10 12 13 14 12 10 9 9 9 9 9 10 10 11 12 12 11 11 14 17 19 21 22 23 24 27 29 31
5 7 7 4 3 4 3 5 4 4 3 1 1 3 3 3 6 7 9 11 11 9 10 8 6 6 3 4 6 7 8 6 4 3 3 6 10 14 16 16 15 14 13 12 11 10 9 9 10 11 12 11 12 13 15 17 18 20 21 23 25 26 28
4 6 7 8 12 15 15 14 6 2 3 3 4 3 1 2 5 7 8 11 11 8 7 5 2 2 1 2 4 7 9 7 5 3 3 3 7 12 15 16 17 17 16 16 15 13 12 11 10 10 10 10 11 12 13 14 15 16 17 20 22 24 25
7 9 11 14 18 19 17 15 10 3 4 3 3 3 3 4 6 7 6 8 9 6 3 1 2 2 1 1 3 7 10 8 6 4 3 3 5 8 11 14 15 16 17 16 15 15 15 13 12 11 9 8 8 8 9 10 11 11 13 15 18 20 21
7 6 7 10 14 17 15 13 10 7 5 4 5 7 8 7 6 7 7 6 6 5 1 3 3 3 4 3 3 6 10 10 8 6 5 5 6 6 8 10 11 13 15 14 14 15 14 13 13 11 10 9 7 6 6 6 7 8 9 10 12 14 16
5 7 11 14 18 23 24 19 14 10 8 6 7 13 12 8 6 6 6 4 4 5 5 3 2 3 5 5 5 6 9 10 9 8 7 7 6 6 6 8 10 13 14 13 13 13 12 12 11 10 9 9 7 7 6 5 6 6 7 8 9 10 12
7 11 15 15 15 18 20 21 19 15 11 7 7 15 13 7 5 7 6 5 4 5 5 5 4 4 7 9 8 7 7 10 12 10 9 9 8 7 7 8 11 14 15 14 13 13 13 13 11 10 9 8 7 6 6 5 6 6 7 8 9 10 11
8 8 8 6 5 7 11 18 21 19 15 8 5 14 13 8 6 6 7 6 5 5 4 4 6 6 7 11 11 8 7 9 12 14 13 13 12 10 9 10 14 16 17 16 15 15 15 15 13 11 10 8 7 6 5 5 5 6 7 8 10 11 12
11 14 14 11 8 9 17 25 26 21 17 11 4 10 11 7 6 5 6 7 7 6 5 5 7 7 8 11 13 11 8 8 10 14 17 17 17 15 14 14 16 18 19 18 17 17 17 16 14 12 11 10 8 7 6 5 5 5 6 8 9 10 11
18 22 24 20 14 16 24 30 29 23 19 15 7 7 10 7 4 4 4 7 9 9 8 8 8 8 9 11 12 12 9 8 9 14 18 20 20 20 19 19 19 19 19 19 18 17 16 14 13 12 12 11 10 9 9 8 6 5 4 4 6 7 8
22 24 26 25 23 25 30 33 31 26 21 17 11 9 9 6 2 2 3 8 9 9 11 11 10 9 10 11 12 11 9 8 10 14 18 21 21 21 21 21 20 20 19 18 17 16 15 14 13 12 12 11 11 10 10 9 8 7 6 4 3 2 2
Wind_Direction
178 189 181 163 171 179 166 184 203 205 174 184 222 250 120 193 257 220 198 242 265 271 267 241 217 228 227 228 230 225 230 228 212 202 202 205 208 208 209 213 219 222 222 223 224 226 228 228 229 229 230 231 231 231 232 232 231 232 232 232 232 231 231
195 188 171 174 183 159 144 196 189 136 138 198 223 235 208 219 246 234 205 237 245 232 253 216 193 209 216 220 224 225 231 229 222 215 210 213 213 210 213 217 220 221 222 223 224 225 227 228 228 229 230 232 232 231 232 232 232 232 233 233 233 233 233
178 159 170 183 181 167 166 184 163 142 175 192 182 215 226 218 237 249 213 231 238 223 226 207 190 203 211 217 218 221 227 226 226 224 218 219 217 212 213 216 218 220 222 224 224 224 225 227 228 229 230 231 232 232 233 233 234 234 233 234 233 234 234
153 155 186 191 181 188 185 149 162 175 210 187 173 194 211 205 228 247 229 230 238 223 214 212 216 214 216 221 217 219 225 224 224 224 222 220 217 216 218 217 219 221 222 223 224 224 225 226 228 229 229 229 230 232 233 233 234 235 234 235 235 235 235
162 176 195 193 186 188 185 177 185 187 181 178 183 197 207 212 222 234 247 250 241 181 194 206 213 215 219 222 220 223 227 228 228 228 228 226 221 222 223 221 221 222 222 222 223 225 225 226 228 228 226 227 229 230 232 233 233 234 234 235 236 237 236
188 182 186 199 198 192 192 194 192 188 185 178 185 203 208 215 227 218 244 263 250 136 168 204 209 214 220 221 219 225 231 232 232 233 234 233 229 228 228 226 224 223 222 221 219 222 224 224 226 227 224 226 228 228 231 233 232 233 235 235 236 237 237
197 179 192 212 214 204 203 203 194 193 194 186 195 211 192 193 220 212 251 273 269 140 165 195 204 213 223 225 221 227 235 235 234 236 238 238 236 234 231 228 225 221 220 220 217 219 224 224 225 227 225 226 228 229 230 231 232 233 235 235 236 238 238
296 218 218 234 250 226 219 214 202 198 198 198 208 217 175 185 202 186 220 253 247 120 172 205 213 229 239 242 234 232 241 242 242 243 244 244 244 241 236 233 230 225 223 223 220 220 224 224 224 225 226 227 228 229 230 231 232 234 234 234 236 237 237
207 216 219 218 203 201 223 223 211 206 203 205 211 203 134 211 208 195 217 239 198 109 6 234 242 259 264 262 249 241 250 253 252 253 253 250 248 245 243 240 237 232 228 225 223 222 223 223 222 222 225 227 228 229 230 231 233 234 233 233 235 237 237
204 206 211 213 196 194 224 230 217 211 207 209 212 194 188 217 203 196 219 235 145 99 143 217 243 254 263 265 258 247 250 255 257 259 261 260 258 254 249 244 240 236 232 227 225 224 222 221 222 221 223 225 227 229 231 232 233 233 233 233 234 236 236
217 224 257 309 351 298 247 280 256 225 215 214 212 209 210 196 173 209 225 237 257 231 181 179 223 229 243 260 264 258 257 260 260 260 263 266 266 263 256 249 245 240 235 232 229 227 224 223 223 223 222 224 226 228 231 232 232 232 233 233 234 235 235
4 332 312 311 317 278 265 283 281 268 244 224 219 221 204 148 182 232 221 211 244 241 200 199 225 221 234 248 254 265 270 269 264 263 267 269 271 272 266 257 250 244 239 237 234 230 227 225 225 225 224 225 226 228 231 232 231 231 233 234 234 235 235
337 315 307 304 287 259 259 268 268 270 271 249 236 233 212 177 209 241 211 178 225 239 222 223 230 225 240 253 263 272 276 275 266 253 250 253 265 276 274 268 260 252 247 243 238 234 230 227 225 225 225 226 226 228 230 231 230 231 233 234 235 235 235
322 314 311 317 313 282 274 269 264 265 266 261 254 248 239 227 234 248 238 203 216 232 229 229 233 238 251 265 276 274 272 269 258 246 247 261 281 288 288 288 278 264 256 250 244 238 232 229 227 225 225 226 226 227 228 229 231 231 233 235 236 234 235
310 318 323 324 321 309 291 273 261 258 257 254 249 243 244 246 245 251 256 247 229 231 249 249 244 246 255 260 262 259 261 264 264 270 278 285 289 287 286 288 286 277 266 255 247 241 236 233 230 227 227 226 227 227 227 229 231 231 232 235 235 233 235
293 326 338 328 324 312 284 264 256 250 245 246 247 240 234 234 236 242 249 254 255 243 260 262 255 242 238 242 245 253 260 265 268 275 280 281 282 281 279 277 278 281 277 266 255 249 244 238 233 231 229 226 226 226 227 230 231 230 231 233 233 234 236
292 316 330 329 324 302 267 255 254 250 249 253 252 246 238 229 228 237 241 245 250 226 227 242 248 241 233 236 244 251 257 260 260 263 268 270 273 275 275 274 273 272 273 272 267 259 252 245 239 236 232 228 228 229 229 230 229 228 230 233 234 234 234
289 306 324 319 289 256 251 273 293 265 260 266 266 259 252 237 227 241 259 256 241 225 217 224 237 242 241 242 245 250 254 257 256 258 261 263 265 267 270 273 273 270 268 270 272 267 258 252 247 239 234 234 235 234 231 229 228 228 230 233 234 234 233
278 303 313 279 239 248 315 33 62 278 244 264 293 279 266 259 247 245 250 244 234 228 218 222 232 240 247 252 255 256 256 256 254 254 255 257 259 261 265 269 272 272 271 272 275 274 265 254 248 241 235 235 236 234 231 231 231 230 231 233 234 234 232
247 258 248 234 247 323 314 311 83 4 248 297 305 270 224 9 354 301 267 257 254 249 234 233 241 248 260 268 264 257 254 251 249 249 251 254 256 258 262 266 270 272 273 273 273 274 267 249 244 241 237 233 231 231 231 231 231 231 231 232 232 231 230
217 230 246 253 304 312 297 269 80 27 278 354 325 272 184 48 33 3 327 305 294 290 285 271 264 265 278 271 254 250 249 245 244 248 251 253 256 258 260 264 268 272 274 274 272 272 264 242 235 238 236 231 229 228 229 230 231 231 230 231 232 232 231
206 229 252 257 264 268 247 144 74 331 247 227 221 233 233 96 44 4 339 318 313 312 310 306 297 267 255 254 247 244 242 240 241 245 251 253 255 258 259 262 267 272 275 274 272 271 263 242 231 234 235 231 229 228 229 230 230 230 230 232 234 234 231
212 217 234 238 241 237 145 128 344 332 218 193 196 235 240 81 18 354 341 325 317 315 313 310 295 219 233 246 246 237 234 233 233 236 243 248 251 255 258 262 267 270 273 271 267 262 252 236 230 233 232 229 228 228 229 229 229 229 232 235 236 234 232
228 224 236 239 241 243 124 149 299 327 167 175 202 249 260 37 356 339 340 332 319 313 313 305 266 222 231 262 281 230 222 222 222 219 220 224 232 243 251 257 261 263 261 256 247 235 220 207 211 222 228 229 229 228 228 227 228 231 234 236 235 235 236
229 230 242 248 250 240 164 176 310 70 153 194 227 247 280 354 336 333 331 326 323 320 310 289 261 257 279 313 323 207 201 203 196 186 183 184 184 189 202 218 230 231 227 217 209 203 190 182 187 198 214 225 228 227 228 228 231 235 236 236 235 236 237
226 230 242 255 267 224 151 159 137 134 182 237 264 299 311 303 322 335 326 319 331 330 312 285 265 269 282 275 208 165 174 175 164 158 150 141 140 141 141 145 160 181 188 187 190 188 176 172 175 177 189 209 220 224 228 232 236 239 239 238 237 237 237
219 232 235 243 267 193 143 159 173 183 217 286 328 321 313 322 335 332 322 324 336 332 318 295 261 242 227 197 172 149 144 140 130 127 123 123 126 125 123 123 127 138 153 160 167 170 166 168 171 168 172 189 208 220 227 232 236 239 240 240 239 238 239
213 221 218 220 300 328 278 241 218 182 201 262 272 275 300 342 343 330 323 327 332 328 320 304 247 214 198 178 159 135 125 115 90 64 77 107 117 119 118 117 116 119 123 125 128 137 145 153 161 161 165 178 196 212 222 227 232 235 237 239 240 241 242
251 254 266 288 303 307 301 295 292 160 167 203 208 222 274 341 341 337 322 320 327 325 314 314 272 196 172 143 136 119 111 103 86 62 35 69 106 114 116 117 118 117 116 114 116 119 121 125 134 140 150 168 185 203 216 224 232 237 238 239 240 242 245
303 288 265 264 277 287 291 295 294 240 180 175 172 152 81 39 3 350 334 326 333 328 294 302 62 63 73 86 103 105 103 98 90 80 50 56 89 105 114 119 121 120 119 118 118 116 114 113 113 116 125 144 165 189 206 218 228 235 239 240 241 241 244
301 289 253 254 277 289 289 285 280 262 229 180 122 85 61 48 26 10 5 353 346 346 9 124 107 81 78 58 51 88 98 97 93 87 73 64 68 81 102 111 116 120 121 119 116 115 113 110 107 109 115 122 136 159 182 200 214 223 231 236 239 240 241
266 274 282 287 293 295 290 278 269 263 240 195 102 66 50 43 49 41 24 14 9 6 9 28 65 77 83 71 48 66 88 95 94 90 82 76 68 65 76 89 100 108 109 107 107 108 105 102 100 102 106 110 120 135 150 168 183 197 209 216 225 231 233
279 275 280 284 282 282 279 268 261 256 241 213 94 66 50 33 52 72 66 60 62 42 16 15 34 59 83 84 67 51 66 84 90 89 85 81 75 65 61 69 81 89 93 94 95 94 91 88 87 89 93 99 107 119 133 146 155 168 181 191 203 215 222
273 257 264 285 286 277 280 278 270 256 238 220 106 75 60 28 21 65 82 77 74 79 65 40 34 43 69 82 77 59 47 65 80 84 83 80 76 69 63 66 72 77 80 81 82 83 83 83 85 88 89 91 96 103 116 132 145 160 172 181 193 204 212
263 264 275 292 305 293 289 292 288 268 244 229 150 94 76 39 7 32 70 71 63 69 74 55 38 42 61 77 80 70 51 46 66 80 82 79 75 68 61 62 65 69 72 73 73 75 76 78 83 84 82 83 88 90 95 105 121 144 163 178 188 196 205
268 274 278 280 281 276 277 287 291 280 260 249 218 131 100 73 15 356 55 68 62 65 72 62 49 50 64 76 79 74 60 44 56 73 78 76 72 66 60 57 58 60 63 64 64 67 70 74 76 75 73 75 77 79 82 82 81 89 114 151 170 179 192
266 273 276 274 270 269 274 281 284 275 259 248 221 167 126 91 2 310 66 68 62 67 73 68 61 60 66 73 76 73 64 52 57 71 75 73 70 66 60 56 54 53 54 55 55 58 63 66 67 69 71 70 67 67 68 62 56 58 63 71 93 122 162
Height
1421 1425 1428 1429 1438 1448 1451 1453 1456 1452 1446 1453 1467 1474 1471 1473 1479 1472 1462 1454 1442 1438 1432 1421 1422 1424 1422 1423 1422 1421 1423 1422 1426 1429 1430 1432 1433 1435 1437 1438 1440 1443 1447 1452 1455 1458 1462 1465 1468 1471 1473 1476 1479 1482 1486 1489 1493 1496 1499 1502 1504 1508 1511
1421 1419 1424 1428 1429 1434 1445 1452 1447 1443 1450 1454 1461 1474 1476 1478 1481 1467 1455 1453 1448 1446 1439 1423 1421 1425 1423 1421 1420 1419 1419 1420 1423 1424 1425 1426 1427 1429 1432 1432 1436 1440 1444 1448 1450 1453 1456 1459 1462 1465 1468 1471 1475 1478 1481 1485 1488 1491 1493 1497 1500 1504 1506
1420 1418 1425 1433 1430 1428 1434 1438 1434 1441 1457 1461 1462 1473 1476 1477 1479 1467 1456 1453 1445 1441 1435 1425 1424 1425 1421 1419 1418 1418 1417 1417 1418 1418 1420 1421 1423 1427 1428 1429 1433 1436 1439 1442 1444 1448 1451 1454 1458 1460 1464 1468 1471 1474 1477 1480 1483 1486 1490 1493 1496 1499 1502
1418 1420 1425 1432 1433 1431 1430 1432 1432 1436 1444 1450 1455 1459 1459 1465 1473 1466 1460 1455 1440 1427 1422 1421 1423 1420 1418 1417 1416 1415 1413 1411 1412 1413 1414 1416 1419 1421 1423 1425 1427 1429 1432 1435 1438 1442 1445 1449 1452 1456 1461 1464 1467 1470 1473 1476 1479 1482 1486 1489 1492 1494 1498
1419 1422 1421 1422 1425 1429 1431 1434 1436 1437 1438 1440 1446 1449 1446 1451 1462 1463 1462 1454 1433 1416 1412 1413 1414 1413 1412 1412 1412 1411 1409 1407 1408 1409 1410 1411 1413 1415 1417 1419 1421 1423 1426 1429 1433 1437 1441 1445 1448 1452 1457 1460 1462 1466 1468 1472 1475 1478 1481 1484 1486 1489 1493
1419 1418 1413 1411 1413 1416 1421 1426 1428 1431 1434 1439 1450 1455 1445 1442 1448 1451 1455 1451 1428 1409 1407 1407 1407 1408 1406 1406 1407 1407 1405 1405 1406 1406 1407 1409 1409 1411 1412 1414 1417 1419 1422 1426 1431 1435 1439 1443 1445 1448 1452 1455 1458 1461 1464 1467 1470 1473 1476 1479 1481 1484 1488
1415 1412 1409 1407 1407 1408 1411 1416 1417 1420 1425 1430 1443 1451 1443 1440 1443 1440 1446 1448 1427 1405 1403 1405 1404 1403 1402 1402 1403 1404 1403 1403 1403 1404 1405 1407 1408 1409 1411 1413 1416 1419 1421 1425 1430 1433 1436 1439 1441 1444 1447 1450 1452 1455 1458 1462 1465 1468 1471 1474 1477 1480 1483
1412 1409 1407 1406 1408 1411 1413 1412 1411 1415 1418 1420 1425 1431 1432 1437 1441 1440 1448 1449 1426 1404 1401 1402 1401 1401 1401 1401 1401 1402 1402 1401 1401 1403 1404 1405 1407 1409 1411 1413 1415 1418 1420 1423 1427 1429 1430 1433 1436 1440 1442 1445 1447 1450 1454 1457 1460 1463 1466 1470 1473 1475 1478
1428 1422 1417 1413 1411 1412 1414 1412 1411 1412 1414 1415 1418 1423 1431 1435 1432 1433 1443 1440 1420 1406 1404 1402 1402 1403 1402 1401 1400 1401 1401 1400 1400 1401 1401 1403 1405 1407 1409 1411 1412 1415 1416 1418 1421 1422 1424 1427 1431 1434 1436 1439 1442 1445 1448 1451 1454 1458 1462 1465 1468 1470 1474
1431 1430 1426 1421 1416 1416 1414 1412 1411 1411 1412 1415 1417 1424 1435 1436 1427 1424 1428 1425 1414 1406 1405 1405 1404 1404 1404 1401 1399 1400 1400 1399 1399 1399 1400 1401 1402 1404 1406 1407 1409 1411 1412 1414 1415 1417 1419 1422 1425 1428 1431 1434 1437 1440 1443 1446 1449 1453 1456 1460 1463 1465 1469
1426 1429 1429 1424 1422 1423 1420 1416 1415 1413 1412 1412 1414 1421 1428 1428 1428 1424 1417 1415 1415 1410 1407 1407 1405 1404 1404 1401 1398 1398 1398 1397 1397 1398 1399 1400 1400 1402 1403 1405 1407 1408 1409 1410 1410 1412 1414 1417 1419 1423 1426 1429 1432 1435 1437 1441 1445 1448 1452 1455 1457 1460 1463
1429 1429 1428 1425 1425 1427 1424 1421 1419 1415 1414 1412 1412 1416 1416 1417 1426 1424 1412 1411 1416 1410 1406 1407 1404 1402 1403 1400 1398 1397 1396 1395 1396 1397 1398 1399 1399 1400 1401 1403 1403 1404 1405 1405 1406 1408 1411 1413 1415 1418 1421 1424 1427 1430 1433 1436 1440 1444 1446 1449 1451 1454 1458
1429 1426 1424 1423 1425 1426 1424 1423 1420 1417 1416 1415 1413 1412 1409 1409 1416 1414 1407 1410 1413 1407 1404 1405 1401 1400 1400 1398 1397 1397 1395 1395 1395 1396 1397 1397 1398 1398 1399 1400 1400 1400 1401 1402 1403 1405 1407 1410 1413 1415 1418 1420 1423 1426 1429 1432 1436 1438 1441 1443 1446 1449 1453
1428 1425 1423 1423 1424 1425 1423 1421 1419 1416 1415 1414 1413 1411 1407 1405 1406 1404 1403 1408 1407 1401 1399 1399 1397 1397 1396 1396 1396 1396 1395 1394 1394 1395 1396 1395 1396 1397 1397 1398 1398 1398 1398 1399 1400 1402 1405 1407 1409 1411 1413 1415 1418 1421 1423 1427 1430 1433 1436 1438 1441 1445 1446
1428 1424 1422 1422 1423 1424 1423 1419 1415 1413 1412 1411 1410 1409 1407 1407 1408 1405 1404 1407 1406 1399 1395 1395 1395 1396 1396 1396 1396 1395 1393 1392 1393 1394 1393 1394 1395 1395 1395 1396 1396 1396 1396 1397 1398 1399 1401 1402 1403 1406 1408 1410 1413 1416 1419 1422 1424 1428 1430 1433 1436 1439 1440
1430 1423 1424 1424 1420 1418 1417 1413 1409 1407 1407 1406 1405 1404 1404 1405 1407 1408 1407 1408 1405 1399 1396 1395 1394 1395 1396 1395 1393 1392 1390 1390 1391 1392 1392 1392 1393 1393 1393 1394 1394 1394 1394 1394 1395 1396 1397 1398 1400 1402 1403 1406 1409 1411 1414 1416 1419 1422 1425 1428 1431 1433 1434
1432 1425 1425 1424 1421 1421 1415 1406 1402 1401 1399 1398 1398 1397 1397 1398 1401 1404 1405 1403 1398 1393 1393 1395 1393 1392 1392 1391 1389 1388 1387 1388 1389 1390 1390 1390 1391 1390 1390 1391 1392 1392 1392 1392 1392 1393 1394 1395 1396 1398 1400 1403 1405 1406 1409 1412 1415 1419 1421 1423 1426 1428 1431
1436 1427 1424 1425 1426 1424 1412 1401 1400 1401 1399 1399 1398 1395 1394 1393 1394 1395 1396 1394 1391 1389 1390 1392 1391 1388 1386 1386 1386 1385 1384 1385 1387 1387 1387 1387 1387 1387 1387 1387 1388 1389 1389 1389 1389 1390 1390 1391 1392 1395 1398 1400 1401 1404 1407 1410 1413 1415 1417 1419 1422 1424 1427
1435 1428 1428 1433 1430 1415 1402 1398 1399 1399 1398 1400 1400 1396 1393 1392 1391 1391 1390 1389 1387 1386 1386 1386 1385 1383 1383 1383 1383 1383 1383 1383 1384 1384 1384 1384 1385 1385 1385 1384 1385 1385 1386 1386 1386 1386 1387 1388 1389 1392 1394 1395 1398 1401 1404 1407 1409 1412 1414 1416 1418 1421 1424
1434 1432 1434 1432 1421 1404 1395 1396 1398 1397 1399 1401 1400 1396 1393 1393 1394 1393 1390 1388 1385 1383 1384 1383 1382 1382 1382 1382 1382 1382 1382 1382 1382 1382 1382 1382 1382 1382 1382 1382 1382 1382 1382 1382 1383 1383 1384 1385 1386 1387 1388 1391 1394 1397 1400 1403 1405 1408 1411 1414 1416 1419 1421
1431 1432 1428 1420 1414 1408 1400 1397 1399 1400 1402 1402 1402 1401 1396 1394 1396 1396 1393 1391 1387 1385 1384 1384 1383 1383 1383 1383 1380 1379 1380 1380 1380 1379 1379 1379 1379 1379 1379 1379 1378 1378 1379 1379 1379 1380 1380 1381 1381 1382 1385 1388 1391 1393 1396 1398 1401 1404 1407 1410 1412 1415 1417
1426 1429 1426 1420 1421 1416 1403 1398 1399 1400 1400 1400 1402 1404 1399 1394 1395 1396 1395 1393 1390 1387 1386 1385 1384 1384 1386 1385 1378 1375 1376 1377 1377 1377 1377 1376 1376 1376 1376 1376 1375 1375 1376 1376 1377 1377 1377 1378 1378 1380 1382 1385 1387 1390 1392 1394 1397 1400 1402 1404 1407 1410 1413
1425 1427 1425 1420 1418 1409 1399 1397 1398 1397 1398 1399 1400 1402 1398 1393 1394 1395 1393 1393 1391 1388 1387 1386 1385 1386 1387 1383 1375 1371 1373 1374 1374 1375 1375 1374 1375 1374 1374 1374 1374 1373 1374 1374 1374 1374 1375 1375 1376 1378 1380 1382 1384 1386 1388 1391 1394 1396 1397 1399 1402 1404 1407
1427 1425 1420 1412 1407 1401 1396 1396 1397 1396 1396 1398 1402 1404 1397 1393 1394 1394 1392 1392 1391 1389 1388 1387 1385 1384 1382 1378 1373 1370 1372 1372 1373 1374 1374 1373 1373 1372 1372 1372 1371 1371 1371 1372 1372 1372 1373 1373 1375 1377 1378 1379 1381 1383 1385 1388 1390 1391 1393 1395 1398 1401 1405
1428 1427 1420 1410 1401 1394 1393 1396 1396 1395 1397 1400 1402 1400 1394 1393 1394 1392 1391 1391 1390 1389 1388 1387 1384 1381 1378 1376 1374 1373 1373 1373 1373 1373 1373 1372 1372 1371 1371 1370 1370 1370 1370 1370 1371 1371 1372 1372 1373 1375 1376 1377 1379 1381 1383 1385 1387 1388 1391 1395 1398 1401 1404
1428 1425 1420 1414 1404 1392 1390 1395 1395 1395 1400 1400 1395 1391 1391 1392 1392 1391 1390 1389 1387 1387 1387 1385 1382 1380 1378 1377 1375 1374 1374 1374 1374 1374 1373 1372 1371 1370 1369 1369 1369 1369 1369 1369 1370 1371 1371 1371 1372 1373 1375 1376 1378 1381 1382 1384 1386 1389 1392 1394 1397 1400 1402
1427 1426 1424 1422 1412 1395 1389 1393 1395 1395 1396 1394 1389 1388 1390 1390 1389 1390 1389 1387 1385 1386 1385 1383 1381 1379 1378 1377 1374 1373 1374 1374 1375 1376 1375 1374 1372 1370 1369 1369 1369 1369 1369 1369 1369 1370 1370 1371 1372 1372 1374 1376 1378 1380 1382 1384 1386 1388 1390 1392 1394 1397 1398
1423 1424 1419 1413 1406 1396 1392 1393 1391 1390 1391 1389 1388 1389 1388 1388 1389 1389 1388 1386 1385 1384 1383 1382 1381 1379 1378 1377 1374 1373 1373 1373 1375 1377 1377 1376 1374 1372 1370 1369 1369 1370 1369 1369 1369 1370 1371 1372 1372 1372 1373 1375 1377 1379 1381 1383 1385 1386 1388 1390 1392 1394 1396
1420 1417 1411 1404 1399 1397 1398 1395 1390 1389 1389 1389 1389 1388 1387 1387 1388 1387 1387 1387 1385 1383 1382 1382 1381 1379 1379 1378 1376 1373 1372 1373 1375 1377 1378 1378 1376 1373 1372 1371 1370 1370 1370 1369 1370 1371 1371 1372 1372 1372 1373 1374 1376 1378 1379 1381 1383 1385 1387 1388 1390 1392 1394
1420 1414 1408 1405 1401 1398 1397 1397 1394 1393 1391 1389 1388 1388 1386 1386 1386 1385 1386 1385 1384 1383 1382 1381 1380 1380 1379 1380 1378 1374 1371 1372 1375 1377 1378 1377 1376 1374 1373 1372 1371 1371 1370 1370 1370 1370 1371 1372 1372 1372 1373 1374 1375 1377 1378 1380 1381 1383 1385 1386 1388 1390 1392
1424 1416 1406 1403 1402 1400 1399 1399 1397 1394 1392 1389 1388 1387 1385 1384 1385 1385 1385 1385 1384 1383 1382 1381 1380 1379 1378 1380 1380 1376 1372 1373 1374 1376 1377 1376 1376 1375 1374 1373 1373 1371 1370 1370 1370 1370 1370 1371 1371 1372 1373 1374 1376 1377 1378 1379 1380 1382 1383 1385 1387 1389 1390
1422 1416 1407 1404 1404 1402 1400 1400 1398 1395 1393 1390 1387 1384 1383 1384 1384 1384 1384 1384 1384 1383 1382 1381 1381 1379 1378 1379 1381 1379 1376 1374 1375 1376 1376 1375 1376 1376 1375 1374 1373 1371 1370 1369 1369 1369 1369 1370 1371 1373 1373 1375 1376 1376 1378 1379 1380 1381 1382 1383 1385 1386 1388
1419 1414 1407 1404 1403 1400 1398 1399 1398 1396 1394 1392 1386 1382 1382 1384 1385 1384 1384 1385 1384 1384 1383 1382 1381 1380 1378 1377 1379 1381 1380 1377 1376 1375 1375 1375 1376 1376 1376 1375 1373 1371 1369 1369 1368 1369 1369 1370 1372 1373 1374 1375 1375 1376 1377 1378 1378 1380 1381 1382 1383 1385 1386
1417 1409 1404 1403 1404 1402 1398 1397 1397 1395 1394 1392 1385 1380 1381 1386 1387 1384 1384 1385 1385 1384 1383 1382 1382 1381 1379 1377 1377 1379 1381 1380 1377 1375 1374 1374 1375 1376 1376 1375 1373 1371 1370 1369 1369 1369 1370 1371 1372 1373 1374 1374 1375 1376 1376 1377 1377 1378 1379 1380 1381 1382 1384
1409 1403 1402 1405 1406 1403 1398 1396 1397 1395 1393 1391 1385 1378 1378 1384 1387 1385 1384 1384 1385 1384 1383 1383 1383 1381 1379 1377 1376 1377 1380 1380 1378 1375 1374 1373 1373 1375 1376 1375 1374 1373 1371 1371 1370 1370 1371 1372 1372 1373 1374 1375 1375 1375 1376 1376 1377 1377 1378 1378 1379 1380 1381
1404 1401 1403 1404 1404 1401 1397 1395 1395 1394 1392 1390 1385 1379 1377 1381 1385 1386 1385 1385 1385 1385 1383 1383 1384 1383 1381 1379 1377 1377 1380 1381 1379 1376 1373 1371 1372 1373 1374 1375 1375 1373 1372 1371 1371 1372 1372 1373 1373 1374 1375 1375 1375 1376 1376 1376 1377 1377 1378 1378 1379 1379 1380
1402 1400 1400 1401 1400 1398 1395 1394 1393 1391 1390 1389 1385 1380 1379 1381 1384 1386 1386 1385 1386 1385 1383 1383 1384 1385 1384 1381 1379 1379 1381 1382 1380 1376 1372 1370 1371 1373 1374 1375 1375 1374 1373 1372 1372 1372 1373 1373 1374 1375 1375 1376 1376 1376 1377 1377 1377 1378 1378 1378 1378 1378 1379